Wind_Speed
27 27 29 29 31 30 32 31 12 41 45 33 24 22 16 32 25 21 6 8 9 9 10 5 3 7 1 5 4 7 3 4 3 3 7 3 6 9 8 5 3 2 4 4
25 27 30 33 32 28 29 23 31 39 56 22 18 15 23 20 13 19 12 10 11 6 9 5 4 5 5 5 5 1 3 2 3 8 6 5 6 9 8 4 3 13 5 3
24 27 29 32 31 30 29 11 6 22 50 49 25 25 24 27 24 20 23 8 18 10 10 5 2 2 2 1 2 2 3 4 6 8 5 3 7 5 5 5 4 3 5 6
25 27 25 28 26 28 29 16 5 13 8 25 18 24 19 25 18 25 30 14 21 20 7 7 7 4 2 5 6 3 4 4 6 6 6 1 6 9 9 3 3 6 4 3
25 26 24 25 26 26 24 14 9 14 10 33 26 24 24 31 29 18 16 20 23 21 14 7 6 7 7 7 3 3 3 5 5 1 8 10 3 13 5 2 9 5 8 10
24 24 24 25 27 25 11 22 39 23 8 14 23 26 32 28 28 20 34 18 9 15 15 6 14 23 20 4 5 7 7 5 4 5 1 6 8 18 8 2 7 5 6 7
22 22 23 23 23 24 28 27 27 18 9 13 19 27 25 25 31 20 13 28 11 12 18 17 15 16 12 5 4 5 6 6 3 3 5 5 8 12 9 8 13 5 4 3
22 20 21 23 24 22 25 32 22 9 10 16 17 28 27 25 37 27 22 30 31 22 21 7 4 1 3 3 6 6 3 5 4 5 5 4 6 8 6 5 5 4 6 7
22 20 20 19 25 24 23 30 25 26 4 9 33 17 26 13 15 17 6 15 27 30 2 4 7 5 6 7 4 5 6 5 4 2 4 7 7 9 15 8 3 7 9 10
22 22 22 20 20 22 26 34 23 23 16 25 30 12 14 23 9 11 8 10 10 20 4 3 3 4 9 7 9 5 4 3 6 3 3 6 3 8 18 7 7 10 19 20
20 21 21 21 17 18 23 32 27 21 8 8 25 32 28 27 27 9 13 7 3 2 4 4 5 4 6 5 9 8 6 6 4 3 3 7 10 7 9 7 14 16 17 16
20 20 20 16 15 17 23 25 17 24 24 9 17 26 29 28 34 26 24 10 9 10 4 3 3 3 4 7 5 11 6 7 6 7 6 5 7 7 19 17 15 10 10 13
19 18 20 13 11 14 21 17 21 19 9 7 9 12 15 19 24 32 11 11 16 11 6 4 3 3 4 7 5 6 5 14 5 6 6 8 15 9 22 11 12 10 10 5
16 16 20 11 8 10 20 23 27 12 7 2 3 10 16 19 19 28 24 30 21 16 8 5 1 2 5 4 5 5 7 15 7 3 2 10 17 19 17 14 13 9 5 4
15 14 18 10 9 12 19 22 26 14 14 5 4 10 7 18 14 8 12 25 24 13 4 3 3 5 2 2 3 3 6 7 7 5 10 9 11 11 10 8 4 3 3 2
15 15 17 10 11 9 11 7 16 16 21 5 1 5 9 9 16 27 8 10 18 9 6 1 2 3 3 3 2 3 12 10 19 8 17 15 10 9 8 8 5 1 2 4
14 13 15 9 11 9 9 6 5 6 23 8 1 2 6 20 23 20 18 10 11 10 7 4 1 2 3 2 3 6 9 5 6 20 21 17 16 10 7 4 3 3 2 3
12 11 12 9 12 14 16 20 23 13 8 6 3 2 2 11 5 3 6 9 2 7 5 4 3 1 2 2 6 4 1 11 12 11 17 17 12 10 8 5 4 1 2 4
10 7 8 8 8 5 3 14 16 9 7 6 4 5 4 9 6 5 6 6 3 3 1 2 5 2 4 5 13 13 18 8 7 11 11 11 10 9 7 7 5 3 3 6
11 7 4 5 2 4 2 5 9 4 7 5 2 8 4 13 5 3 5 5 3 2 3 8 2 3 13 14 15 18 14 18 18 12 10 13 14 18 17 11 7 5 5 8
14 7 5 5 5 6 5 5 4 3 2 6 6 14 10 10 4 3 5 3 3 3 3 4 3 4 8 25 16 13 14 14 14 14 13 8 16 16 15 10 9 10 8 6
12 5 5 0 4 4 4 3 2 2 3 4 8 18 17 12 9 4 4 3 1 3 5 3 3 4 12 24 29 23 19 14 17 15 12 14 15 13 11 12 11 7 5 7
13 5 5 4 5 4 5 5 3 3 4 13 29 11 9 7 7 4 3 4 2 9 3 4 5 4 20 19 25 33 31 20 17 18 21 18 15 15 16 14 10 7 7 10
6 8 6 4 4 4 5 2 2 6 15 29 29 11 4 6 3 3 5 4 4 3 5 8 3 18 23 25 24 30 29 27 23 22 20 21 19 16 13 12 10 10 11 11
5 3 4 6 7 6 8 12 9 10 33 29 14 9 8 3 4 2 5 6 5 7 5 4 20 23 26 26 30 34 32 30 29 25 22 20 18 16 15 13 12 11 9 10
4 4 4 6 1 5 5 9 9 32 33 23 10 4 4 2 5 4 6 8 6 4 4 11 21 23 30 30 32 31 30 29 25 22 21 19 20 18 15 12 11 10 10 11
3 4 9 3 2 5 8 16 18 39 28 4 3 6 6 5 4 5 6 5 4 9 16 19 25 27 31 31 27 25 24 23 21 21 20 19 16 14 13 12 9 9 9 11
Wind_Direction
265 263 266 261 263 258 250 259 239 238 218 210 213 200 189 207 215 202 246 257 267 256 279 243 242 226 112 44 16 140 151 132 169 261 330 247 182 202 189 139 253 88 144 262
265 269 271 265 260 247 240 256 247 241 205 208 204 186 213 207 201 205 216 235 231 214 242 223 216 278 91 51 20 359 157 71 88 349 337 336 220 243 205 161 124 196 138 263
268 269 267 260 255 247 251 249 235 216 206 208 198 188 196 199 208 209 212 215 232 227 228 213 183 119 345 244 200 153 86 130 152 183 218 97 317 235 213 147 132 168 190 152
267 270 267 256 251 246 261 227 280 202 204 199 193 192 189 200 209 211 210 231 227 221 199 178 202 202 277 244 182 201 155 127 124 151 200 35 284 335 271 122 316 152 224 270
269 269 261 273 254 255 262 234 218 249 177 208 175 192 202 201 201 185 216 215 219 211 219 175 185 221 184 199 144 178 212 160 121 213 193 192 283 302 295 156 189 211 230 226
273 270 264 262 258 252 262 268 246 221 262 194 189 194 195 206 184 212 208 210 215 220 209 165 149 175 176 135 143 206 157 137 107 165 179 324 245 205 235 176 290 228 244 233
271 270 264 268 250 254 254 264 279 205 226 202 197 190 193 199 193 196 212 212 209 225 202 134 104 119 144 197 261 223 153 139 110 155 120 235 239 193 198 205 205 245 307 232
266 271 275 271 261 257 258 243 280 278 206 200 203 204 196 206 188 198 206 205 206 156 142 124 106 92 81 192 236 153 136 119 127 144 178 270 279 204 148 156 259 228 196 127
268 274 277 278 254 253 283 249 275 278 245 210 194 200 194 185 176 193 179 197 196 172 162 97 169 174 160 172 210 201 135 101 122 116 165 201 234 227 178 110 282 291 136 128
271 277 273 284 248 246 264 272 271 271 215 213 208 203 211 201 162 190 120 169 146 173 154 130 160 180 153 160 171 155 126 69 156 149 183 279 267 87 111 116 224 105 132 125
272 274 276 288 262 244 250 279 290 266 263 167 194 202 194 189 194 171 156 127 152 193 129 157 194 153 192 136 159 156 158 147 175 136 114 261 212 135 148 189 131 125 133 131
272 274 276 265 249 237 235 267 262 232 248 178 196 200 210 199 197 180 168 174 151 189 125 186 157 150 163 152 181 164 193 175 177 166 203 201 145 156 136 134 131 135 134 128
269 279 280 256 257 245 254 290 256 260 158 197 158 163 177 192 198 194 156 171 183 175 145 160 196 173 141 171 205 125 199 165 172 116 224 192 204 198 159 161 152 126 134 130
262 269 283 237 266 274 258 258 249 274 193 147 132 164 172 184 190 192 195 195 177 172 162 83 119 199 165 192 162 135 182 171 167 168 107 151 145 150 151 153 155 169 195 263
258 257 278 235 263 267 245 273 251 241 250 144 161 158 151 180 187 177 157 169 154 146 119 113 192 288 72 15 77 179 167 162 173 212 163 139 183 171 157 164 185 262 144 115
244 250 268 242 252 286 250 276 255 261 219 89 124 154 166 161 190 212 240 205 179 164 136 135 250 247 40 109 168 220 187 182 197 160 174 187 168 159 161 148 147 168 330 343
237 244 267 242 261 266 232 211 226 341 168 138 75 21 130 157 147 166 179 118 136 155 124 128 147 154 186 89 169 195 199 189 154 195 177 167 184 175 167 187 216 240 273 316
241 248 268 259 270 286 241 241 255 300 142 153 119 90 122 152 121 100 123 108 45 53 98 128 157 114 94 175 227 220 148 219 217 175 174 166 161 166 168 167 181 143 244 277
223 252 282 277 277 267 285 256 274 270 169 140 173 142 152 141 106 96 75 74 74 61 129 159 121 163 229 198 178 208 229 224 152 156 154 165 162 173 188 188 176 174 282 283
210 225 251 268 250 260 301 219 191 186 176 176 143 119 145 138 122 87 91 107 137 128 214 153 144 242 224 197 196 196 202 224 228 221 217 211 204 191 167 169 171 210 236 258
193 202 237 252 249 200 218 222 190 179 189 165 132 149 123 138 102 115 111 135 161 124 224 131 217 255 204 204 197 190 205 212 191 189 187 174 178 172 170 172 206 221 240 268
184 199 207 232 234 236 229 191 136 212 203 192 141 147 114 113 117 97 112 111 115 134 143 108 250 243 202 205 204 198 201 194 189 189 196 207 194 177 179 186 195 209 237 265
174 207 184 201 203 232 223 166 154 221 190 166 150 137 120 102 106 100 107 103 166 114 80 229 232 240 180 188 204 203 207 210 201 200 195 181 175 184 190 195 191 208 241 264
211 192 176 220 196 241 221 248 169 198 154 148 140 117 102 129 84 129 101 134 108 150 192 231 220 212 183 190 194 188 187 185 178 179 173 173 182 189 196 189 204 233 254 265
242 196 184 217 233 269 271 285 294 150 142 139 119 74 92 81 102 126 117 146 196 210 229 216 183 186 180 178 180 178 171 169 170 172 182 187 190 193 197 210 235 253 273 274
251 229 233 217 268 262 254 267 258 145 149 144 95 99 99 139 148 136 186 164 214 237 198 186 180 174 169 167 165 165 166 171 174 180 187 187 191 200 213 236 258 271 273 280
242 259 251 261 238 275 295 300 179 152 160 153 130 118 178 124 155 193 177 197 201 197 183 185 172 169 165 164 160 168 173 178 177 185 193 200 207 213 226 252 267 274 286 291
Height
1459 1461 1464 1467 1471 1475 1479 1479 1471 1473 1477 1473 1461 1469 1464 1476 1485 1486 1489 1490 1486 1486 1485 1482 1482 1477 1474 1473 1476 1477 1480 1494 1506 1496 1485 1483 1489 1499 1501 1532 1522 1522 1537 1533
1451 1450 1454 1457 1463 1468 1471 1466 1460 1463 1457 1445 1450 1456 1460 1467 1476 1477 1480 1482 1478 1477 1482 1487 1477 1473 1469 1473 1477 1478 1478 1498 1512 1509 1498 1485 1492 1490 1489 1494 1510 1524 1543 1530
1442 1445 1448 1450 1454 1460 1462 1459 1446 1441 1441 1435 1438 1446 1449 1464 1468 1474 1474 1470 1477 1475 1477 1473 1474 1474 1472 1475 1477 1478 1478 1493 1504 1518 1511 1504 1505 1486 1486 1496 1529 1515 1520 1514
1437 1440 1441 1442 1445 1449 1451 1445 1429 1428 1417 1424 1425 1436 1442 1453 1462 1460 1467 1464 1462 1465 1476 1472 1475 1475 1478 1475 1476 1478 1482 1493 1496 1496 1500 1498 1502 1498 1499 1497 1500 1519 1510 1508
1431 1432 1433 1433 1437 1440 1436 1436 1431 1424 1409 1413 1422 1433 1433 1439 1449 1449 1454 1451 1456 1458 1462 1460 1469 1474 1473 1475 1475 1477 1477 1493 1496 1510 1496 1498 1499 1496 1496 1496 1498 1500 1500 1504
1424 1423 1425 1427 1427 1429 1425 1426 1421 1416 1405 1408 1414 1418 1421 1426 1439 1441 1441 1446 1453 1452 1449 1454 1455 1459 1462 1465 1471 1476 1477 1484 1495 1507 1498 1502 1508 1495 1491 1493 1494 1492 1506 1495
1416 1416 1418 1420 1421 1419 1418 1419 1414 1409 1399 1401 1400 1409 1413 1421 1421 1428 1437 1446 1447 1445 1449 1453 1455 1458 1461 1462 1464 1470 1474 1480 1491 1507 1502 1524 1489 1475 1478 1484 1486 1487 1488 1485
1410 1410 1409 1407 1407 1411 1410 1408 1408 1393 1391 1396 1400 1407 1408 1413 1417 1427 1435 1436 1440 1444 1448 1455 1467 1467 1466 1467 1467 1466 1467 1478 1497 1506 1508 1492 1479 1473 1477 1483 1487 1480 1484 1487
1402 1403 1403 1404 1404 1401 1396 1397 1403 1398 1390 1380 1388 1397 1399 1402 1405 1424 1425 1428 1431 1441 1443 1448 1468 1475 1463 1474 1469 1464 1466 1472 1488 1502 1505 1505 1479 1468 1469 1476 1499 1478 1480 1483
1394 1394 1396 1399 1399 1398 1395 1390 1398 1395 1381 1388 1391 1388 1392 1399 1401 1409 1416 1427 1431 1435 1440 1459 1465 1459 1448 1467 1470 1475 1477 1488 1496 1505 1511 1494 1469 1466 1466 1498 1500 1476 1478 1481
1389 1388 1387 1388 1388 1390 1387 1376 1380 1385 1375 1374 1381 1388 1389 1392 1398 1403 1409 1420 1427 1433 1433 1442 1449 1449 1445 1448 1451 1461 1471 1485 1495 1495 1505 1499 1466 1467 1476 1475 1475 1477 1480 1483
1382 1383 1383 1381 1383 1386 1386 1384 1379 1378 1379 1376 1378 1381 1382 1385 1391 1396 1407 1407 1415 1420 1424 1430 1431 1436 1439 1442 1462 1448 1467 1460 1473 1474 1477 1462 1462 1464 1467 1469 1473 1478 1481 1485
1377 1375 1372 1371 1374 1375 1370 1365 1369 1372 1370 1379 1373 1371 1378 1385 1390 1393 1400 1408 1411 1413 1414 1419 1425 1429 1430 1441 1443 1444 1445 1448 1458 1461 1458 1458 1460 1463 1466 1469 1472 1477 1480 1483
1373 1372 1372 1372 1370 1364 1365 1374 1371 1367 1367 1369 1373 1376 1378 1382 1390 1392 1397 1399 1406 1411 1414 1417 1424 1427 1419 1427 1428 1435 1436 1442 1448 1454 1450 1452 1457 1462 1466 1469 1472 1476 1478 1481
1368 1369 1367 1367 1369 1371 1370 1364 1359 1364 1373 1369 1375 1378 1380 1382 1385 1391 1391 1398 1402 1408 1412 1418 1424 1423 1419 1419 1423 1430 1426 1434 1445 1454 1447 1451 1456 1460 1463 1466 1470 1475 1478 1479
1367 1367 1367 1367 1369 1366 1365 1363 1357 1358 1361 1364 1372 1372 1374 1378 1383 1393 1399 1397 1401 1406 1409 1417 1420 1418 1420 1426 1432 1422 1424 1428 1432 1439 1443 1449 1454 1459 1461 1465 1468 1474 1476 1477
1362 1363 1362 1363 1363 1361 1361 1358 1354 1354 1356 1365 1373 1371 1375 1385 1390 1394 1397 1395 1399 1406 1412 1418 1420 1422 1423 1429 1431 1420 1423 1428 1434 1435 1438 1445 1449 1454 1459 1463 1465 1469 1473 1475
1353 1356 1358 1357 1358 1356 1355 1353 1351 1352 1351 1364 1367 1376 1380 1379 1383 1388 1393 1395 1400 1404 1412 1418 1420 1419 1421 1429 1420 1419 1424 1427 1431 1436 1438 1442 1445 1449 1455 1459 1462 1465 1472 1472
1352 1352 1353 1352 1350 1349 1345 1348 1348 1353 1358 1357 1361 1365 1374 1377 1380 1388 1392 1397 1406 1411 1415 1416 1419 1420 1421 1415 1414 1418 1422 1427 1430 1433 1436 1439 1441 1447 1451 1455 1459 1464 1468 1468
1350 1352 1353 1348 1345 1344 1345 1350 1353 1349 1350 1352 1356 1360 1364 1370 1379 1391 1397 1403 1412 1417 1416 1418 1417 1415 1408 1409 1410 1412 1416 1422 1428 1431 1436 1438 1440 1444 1447 1451 1455 1460 1464 1466
1351 1351 1350 1348 1348 1349 1350 1347 1345 1347 1346 1345 1350 1357 1354 1370 1377 1388 1394 1404 1408 1414 1416 1417 1420 1412 1395 1401 1406 1408 1414 1421 1424 1429 1433 1435 1438 1440 1443 1447 1451 1457 1460 1460
1348 1349 1350 1348 1348 1347 1346 1341 1342 1339 1337 1338 1344 1350 1354 1366 1376 1385 1393 1400 1403 1408 1407 1416 1412 1391 1386 1394 1399 1404 1412 1419 1422 1425 1430 1433 1436 1438 1441 1446 1450 1452 1456 1458
1349 1351 1350 1349 1347 1345 1339 1334 1336 1337 1330 1329 1335 1348 1357 1367 1376 1383 1388 1398 1406 1403 1417 1412 1393 1378 1381 1384 1389 1399 1407 1415 1421 1424 1425 1429 1433 1438 1441 1444 1447 1451 1454 1455
1347 1344 1344 1345 1339 1336 1326 1322 1322 1322 1323 1328 1333 1342 1354 1366 1374 1380 1386 1397 1403 1415 1416 1395 1382 1377 1379 1384 1389 1397 1404 1410 1415 1419 1422 1426 1431 1436 1439 1443 1446 1449 1451 1452
1338 1334 1334 1334 1326 1324 1322 1322 1322 1319 1322 1328 1339 1348 1356 1366 1374 1377 1385 1397 1400 1392 1382 1374 1370 1373 1376 1382 1387 1393 1399 1403 1407 1412 1420 1423 1428 1434 1440 1443 1444 1445 1446 1447
1333 1330 1328 1325 1324 1321 1319 1318 1316 1316 1326 1333 1337 1348 1359 1366 1369 1372 1377 1381 1376 1368 1365 1363 1365 1369 1375 1380 1385 1391 1395 1401 1405 1410 1419 1424 1429 1433 1438 1440 1440 1441 1441 1441
1327 1322 1318 1318 1319 1318 1314 1315 1315 1318 1328 1333 1338 1346 1351 1357 1365 1366 1364 1365 1359 1353 1358 1360 1361 1367 1373 1380 1387 1393 1396 1402 1408 1415 1421 1426 1429 1432 1434 1436 1437 1436 1436 1436